Regional Weather Roundup
Issued by NWS

Home | Current Version | Previous Version | Graphics & Text | Print | Product List | Glossary On
Versions: 1 2 3 4 5 6 7 8 9 10 11 12 13 14 15 16 17 18 19 20 21 22 23 24 25 26 27 28 29 30 31 32 33 34 35 36 37 38 39 40 41 42 43 44 45 46 47 48 49 50
000
ASUS45 KABQ 272301
RWRNM
NEW MEXICO REGIONAL WEATHER ROUNDUP
NATIONAL WEATHER SERVICE ALBUQUERQUE NM
500 PM MDT TUE JUN 27 2017

NOTE: "FAIR" MEANS FEW OR NO CLOUDS BELOW 12,000 FEET AGL WITH NO
       SIGNIFICANT WEATHER OR OBSTRUCTIONS TO VISION.

      THIS PRODUCT IS RELEASED AS TWO VERSIONS.  ONE VERSION NEAR
      THE TOP OF THE HOUR CONTAINING PRELIMINARY DATA FROM ALBUQUERQUE
      AND OTHER STATIONS.  A FINAL VERSION WITH ADDITIONAL DATA IS
      ISSUED ABOUT 10 MINUTES AFTER THE HOUR.

NMZ501-503-504-510>518-280000-
NORTHWEST PLATEAU/NORTHCENTRAL MOUNTAINS

CITY           SKY/WX    TMP DP  RH WIND       PRES   REMARKS
FARMINGTON     FAIR      95  17   6 W17G31    29.92F
LOS ALAMOS     FAIR      85  31  14 SW10G18   30.12F
SANTA FE       FAIR      90  37  15 SW12G21   30.05F
TAOS           FAIR      88  30  12 W18G29    30.09F
ANGEL FIRE     FAIR      75  38  26 SW14G22   30.20F

$$
NMZ402-403-502-505>509-280000-
WESTCENTRAL MOUNTAINS/SOUTHWEST MOUNTAINS

CITY           SKY/WX    TMP DP  RH WIND       PRES   REMARKS
GALLUP         FAIR      91  22   8 SW25G33   30.07F
GRANTS         FAIR      90  26   9 W23G29    30.10F
SILVER CITY    FAIR      92  37  14 W12G24    30.07F

$$
NMZ407-409-411-412-280000-
SOUTHERN DESERTS

CITY           SKY/WX    TMP DP  RH WIND       PRES   REMARKS
DEMING         FAIR      97  42  15 MISG      29.97F
LAS CRUCES     FAIR      94  42  16 W5        30.00F
HOLLOMAN AFB   FAIR      97  41  14 NW9       29.96F
ALAMOGORDO     FAIR      93  43  17 S3        29.97F
T OR C         FAIR      89  45  21 S7        30.01F

$$
NMZ519>523-280000-
CENTRAL VALLEYS/CENTRAL HIGHLANDS

CITY           SKY/WX    TMP DP  RH WIND       PRES   REMARKS
ALBUQUERQUE    FAIR      91  44  19 S28G33    29.98F
DOUBLE EAGLE   PTSUNNY   93  32  11 W10G21    30.02F
MORIARTY ARPT  FAIR      89  35  14 SW10      30.07F
CLINES CORNERS FAIR      83  35  18 W28G36    30.12F
BELEN          FAIR      93  34  12 S18G24    29.97F
SOCORRO        FAIR      72  55  53 S16       30.04R

$$
NMZ524>526-539-540-280000-
SOUTHCENTRAL MOUNTAINS

CITY           SKY/WX    TMP DP  RH WIND       PRES   REMARKS
RUIDOSO        FAIR      81  45  28 S9G21     30.18F

$$
NMZ527>531-280000-
NORTHEAST HIGHLANDS/NORTHEAST PLAINS

CITY           SKY/WX    TMP DP  RH WIND       PRES   REMARKS
LAS VEGAS      LGT RAIN  88  29  12 SW20G29   30.06F
RATON          LGT RAIN  76  52  43 S16       29.98F
CLAYTON        FAIR      83  50  31 S15       29.93F

$$
NMZ532>537-280000-
EASTCENTRAL PLAINS

CITY           SKY/WX    TMP DP  RH WIND       PRES   REMARKS
SANTA ROSA     FAIR      95  41  15 SE15G25   29.90F
TUCUMCARI      FAIR      93  50  23 S22G30    29.86F
CANNON AFB     FAIR      91  44  19 S15G24    29.97F
CLOVIS AIRPORT NOT AVBL

$$
NMZ028-029-538-280000-
SOUTHEAST PLAINS

CITY           SKY/WX    TMP DP  RH WIND       PRES   REMARKS
ROSWELL        FAIR      95  45  17 S20G28    29.92F
ARTESIA        FAIR      93  52  24 SE22      29.93F
CARLSBAD       FAIR      93  52  24 SE13G22   29.92F
HOBBS          SUNNY     90  46  22 SE12G20   30.00F


$$




USA.gov is the U.S. government's official web portal to all federal, state and local government web resources and services.